Regional Weather Roundup
Issued by NWS

Home | Current Version | Previous Version | Text Only | Print | Product List | Glossary On
Versions: 1 2 3 4 5 6 7 8 9 10 11 12 13 14 15 16 17 18 19 20 21 22 23 24 25 26 27 28 29 30 31 32 33 34 35 36 37 38 39 40 41 42 43 44 45 46 47 48 49 50
088
ASUS43 KLOT 062108
RWRIL

ILLINOIS REGIONAL WEATHER ROUNDUP
NATIONAL WEATHER SERVICE CHICAGO/ROMEOVILLE IL
400 PM CDT FRI MAY 06 2016

NOTE: "FAIR" INDICATES FEW OR NO CLOUDS BELOW 12,000 FEET WITH NO
SIGNIFICANT WEATHER AND/OR OBSTRUCTIONS TO VISIBILITY.

* THESE STATIONS ARE NOT UNDER NWS QUALITY CONTROL. THEY ALSO MAY NOT
  REPORT WEATHER SUCH AS PRECIPITATION OR FOG.

ILZ001-002-007-009-015-016-024-062200-
NORTHWEST ILLINOIS

CITY           SKY/WX    TMP DP  RH WIND       PRES   REMARKS
MOLINE         SUNNY     86  46  24 W15G25    29.86F HX  83
STERLING*      SUNNY     82  48  30 W14       29.86F HX  81
SAVANNA*       SUNNY     85  48  27 W8        29.85F HX  82
$$

ILZ003-004-008-010-011-017-018-062200-
NORTH CENTRAL ILLINOIS

CITY           SKY/WX    TMP DP  RH WIND       PRES   REMARKS
ROCKFORD       SUNNY     84  49  29 W13       29.86F HX  82
FREEPORT*      SUNNY     80  50  34 W13G21    29.87F HX  80
ROCHELLE*      SUNNY     81  49  32 W16       29.86F HX  80
DE KALB*       SUNNY     81  50  33 W13       29.86F HX  80
$$

ILZ005-006-012>014-019>023-062200-
NORTHEAST ILLINOIS

CITY           SKY/WX    TMP DP  RH WIND       PRES   REMARKS
CHICAGO-OHARE  MOSUNNY   80  48  32 SW8       29.82F
CHICAGO-MIDWAY MOSUNNY   81  45  28 W13G21    29.84F HX  80
AURORA         SUNNY     82  49  31 W16       29.84F HX  81
LANSING*       MOSUNNY   76  44  32 SW9       29.87F
JOLIET*        SUNNY     84  48  28 W12G17    29.85F HX  82
WAUKEGAN       SUNNY     82  49  31 SW9       29.81F HX  81
DUPAGE AIRPORT SUNNY     81  49  32 W14       29.83F HX  80
KANKAKEE*      MOSUNNY  N/A N/A N/A W12       29.87F
WHEELING       SUNNY     81  46  29 SW12G17   29.83F HX  80
MORRIS*        SUNNY     83  45  26 W13G20    29.84F HX  81
ROMEOVILLE*    SUNNY     82  43  25 W12       29.84F HX  80
NORTHERLY ISL    N/A     79  41  25 S8          N/A
NORTHERLY ISL    N/A     79  41  25 S8          N/A
$$

LMZ740>746-062200-
SOUTHERN LAKE MICHIGAN

STATION/POSITION SKY/WX   TEMP    WIND        PRES    VSBY  WAVE
                          AIR SEA DIR/SP/G                  HT/PER
                          (F)     (DEG/KT/KT) (MB)    (MI)  (FT/S)
SOUTHERN BUOY              47 41  140/ 10/ 12 1010.7F         1/ 3
WILMETTE HARBOR            51 45  160/ 10/ 12   N/A           1/ 2
HARRISON CRIB              67     180/ 10/ 10   N/A
BURNHAM HARBOR             79     190/ 10/ 14   N/A
CALUMET HARBOR             76     220/  8/ 12 1011.1F
BURNS HARBOR               72     210/  6/ 13 1012.5F
MICHIGAN CITY              64     360/  2/  3   N/A
ST. JOSEPH                 65 33                N/A           0
$$

ILZ025>027-034>036-040-047-049-050-058-095>099-062200-
WEST-CENTRAL ILLINOIS

CITY           SKY/WX    TMP DP  RH WIND       PRES   REMARKS
QUINCY         SUNNY     81  47  30 W12       29.95F HX  80
GALESBURG*     SUNNY     82  48  30 SW12G20   29.91F HX  81
MACOMB*        SUNNY     83  45  26 W13G18    29.95F HX  81
JACKSONVILLE*  SUNNY     81  42  25 W14       29.95F HX  80
PITTSFIELD*    SUNNY     80  47  31 W12       29.97F
$$

ILZ028>032-037-038-041>044-048-051>054-059>061-062200-
CENTRAL ILLINOIS

CITY           SKY/WX    TMP DP  RH WIND       PRES   REMARKS
PONTIAC        MOSUNNY   82  47  28 W15G23    29.89F HX  80
BLOOMINGTON    SUNNY     80  45  29 W14       29.92F
DECATUR        SUNNY     78  44  29 W13       29.93F
PEORIA         SUNNY     82  44  26 NW12G21   29.90F HX  80
LACON*         MOSUNNY   80  43  26 W10G17    29.87F
LINCOLN*       SUNNY     81  45  27 W8G16     29.92F HX  80
SPRINGFIELD    SUNNY     83  41  22 W12G20    29.94F HX  81
TAYLORVILLE    SUNNY     79  44  28 W12       29.95F
$$

ILZ033-039-045-046-055>057-062-063-062200-
EAST-CENTRAL ILLINOIS

CITY           SKY/WX    TMP DP  RH WIND       PRES   REMARKS
CHAMPAIGN      PTSUNNY   75  40  28 SW10      29.93F
RANTOUL*       MOSUNNY   80  43  27 SW12      29.91F
MATTOON        MOSUNNY   72  41  32 SW12      29.95F
PARIS*         PTSUNNY   74  45  36 W8        29.94F
$$

ILZ079-100>102-062200-
SOUTHWEST ILLINOIS

CITY           SKY/WX    TMP DP  RH WIND       PRES   REMARKS
ALTON          MOSUNNY   77  45  31 W9        29.99F
BELLEVILLE     SUNNY     78  46  32 W9        29.98F
CAHOKIA*       SUNNY     79  39  23 W8        29.98F
SPARTA*        SUNNY     74  45  36 NW7       30.01F
$$

ILZ064>066-069>071-074>076-080>082-084>086-088>090-092>094-062200-
SOUTH-CENTRAL ILLINOIS

CITY           SKY/WX    TMP DP  RH WIND       PRES   REMARKS
CARBONDALE     SUNNY     73  43  33 NW7       30.00F
CAIRO*         SUNNY     74  43  32 W9        30.01F
EFFINGHAM*     PTSUNNY   71  49  44 SW5       29.98F
MARION         SUNNY     73  45  35 NW12      30.01F
MT. VERNON     SUNNY     73  45  35 NW3       30.00F
CENTRALIA*     MOSUNNY   74  49  41 W6        29.98F
SALEM*         MOSUNNY   74  46  36 W10       29.99F
METROPOLIS*    SUNNY     74  48  39 NW6       30.00F
$$

ILZ067-068-072-073-078-083-087-091-062200-
SOUTHEAST ILLINOIS

CITY           SKY/WX    TMP DP  RH WIND       PRES   REMARKS
LAWRENCEVILLE  SUNNY     73  44  35 W12       29.96F
FLORA*         SUNNY     74  45  35 NW10      29.98F
FAIRFIELD*     SUNNY     72  44  36 SW5       29.97F
HARRISBURG*    SUNNY     73  44  35 NW6       29.99F
ROBINSON*      SUNNY     71  45  39 W7        29.97F
CARMI*         SUNNY     72  45  38 NW9       29.98F
$$

ABBREVIATIONS USED IN REMARKS
   TC - TEMPERATURE IN CELSIUS
  WCI - WIND CHILL INDEX
   HX - HEAT INDEX
  VSB - VISIBILITY
$$





USA.gov is the U.S. government's official web portal to all federal, state and local government web resources and services.